Date,TemperatureHighF,TemperatureAvgF,TemperatureLowF,DewpointHighF,DewpointAvgF,DewpointLowF,HumidityHigh,HumidityAvg,HumidityLow,PressureMaxIn,PressureMinIn,WindSpeedMaxMPH,WindSpeedAvgMPH,GustSpeedMaxMPH,PrecipitationSumIn
2013-3-1,36,32,29,33,29,26,99,86,72,29.75,29.62,8,1,8,0.02
2013-3-2,38,30,26,29,26,22,89,83,70,29.74,29.69,8,1,9,0.01
2013-3-3,34,28,22,27,24,20,90,86,75,29.71,29.65,7,1,9,0.00
2013-3-4,31,26,22,25,22,19,91,83,70,29.89,29.69,11,2,14,0.00
2013-3-5,42,30,22,30,25,19,93,81,59,30.17,29.88,7,1,8,0.00
2013-3-6,33,30,28,31,29,25,98,92,83,30.25,30.14,21,5,23,0.00
2013-3-7,31,28,26,29,27,24,96,93,81,30.22,30.14,14,2,16,0.00
2013-3-8,39,31,27,32,27,23,96,85,64,30.31,30.08,4,0,4,0.07
2013-3-9,54,34,23,26,22,16,90,66,23,30.43,30.28,8,0,8,0.29
2013-3-10,52,35,17,30,24,15,95,69,38,30.48,30.34,6,1,6,0.00
2013-3-11,46,39,32,38,32,29,90,76,52,30.36,30.18,9,2,11,0.00
2013-3-12,48,45,38,47,44,37,99,96,88,30.18,29.76,11,1,13,0.82
2013-3-13,44,36,28,37,28,22,97,75,46,29.86,29.78,12,1,15,0.00
2013-3-14,29,24,16,24,15,8,87,69,55,29.91,29.78,12,2,12,0.00
2013-3-15,34,23,12,28,14,3,94,71,34,29.93,29.72,14,2,14,0.00
2013-3-16,33,25,16,25,14,10,90,63,40,29.97,29.79,9,1,9,0.02
2013-3-17,32,22,13,14,9,3,90,60,35,30.40,29.97,10,1,11,0.00
2013-3-18,35,22,4,22,5,-1,90,51,24,30.54,30.31,7,1,8,0.00
2013-3-19,29,26,21,28,25,20,97,96,90,30.30,29.78,28,4,29,0.00
2013-3-20,31,24,19,24,20,16,96,83,63,29.87,29.77,19,2,19,0.00
2013-3-21,38,25,11,18,14,8,95,67,30,29.88,29.69,8,1,8,0.13
2013-3-22,36,27,14,25,19,12,91,72,46,29.82,29.71,9,1,10,0.00
2013-3-23,38,29,19,22,20,16,92,69,44,29.87,29.73,12,2,14,0.00
2013-3-24,41,32,26,26,23,21,83,71,52,29.92,29.83,9,1,10,0.01
2013-3-25,39,30,20,29,24,18,92,80,61,29.85,29.60,13,2,14,0.00
2013-3-26,45,35,28,28,25,20,91,68,38,29.86,29.64,7,0,8,0.00
2013-3-27,49,37,26,31,25,21,87,65,38,29.97,29.84,9,1,9,0.00
2013-3-28,46,38,32,34,31,29,96,79,52,30.11,29.96,5,0,6,0.02
2013-3-29,52,39,32,35,32,28,97,77,45,30.14,30.07,6,0,7,0.03
2013-3-30,51,39,28,32,25,17,97,65,28,30.19,30.10,8,1,10,0.03
2013-3-31,53,40,21,36,24,20,93,60,30,30.20,29.96,11,1,14,0.03